Location: Unspecified
(0.0000°N, 0.0000°E)
Time: 07:08:20
(UTC+02:00)

SeaSat 1 - Visible Passes

Search period start: 28 September 2016 00:00
Search period end: 08 October 2016 00:00
Orbit: 745 x 748 km, 108.0° (Epoch: 26 September)

Date Brightness Start Highest point End Pass type
(mag) Time Alt. Az. Time Alt. Az. Time Alt. Az.
28 Sep 2.5 20:41:18 10° NNE 20:46:08 59° ESE 20:50:59 10° S visible
29 Sep 4.0 21:37:15 10° N 21:41:37 32° WNW 21:45:59 10° SW visible
30 Sep 2.3 20:54:55 10° NNE 20:59:48 68° ESE 21:04:42 10° SSW visible
01 Oct 3.8 20:14:39 10° ENE 20:18:01 19° ESE 20:21:23 10° SSE visible
01 Oct 4.2 21:51:46 13° NNW 21:55:16 28° WNW 21:59:28 10° SW visible
02 Oct 2.3 21:09:58 19° NNE 21:13:27 78° ESE 21:18:23 10° SSW visible
03 Oct 3.7 20:28:01 10° ENE 20:31:40 21° ESE 20:35:20 10° SSE visible
03 Oct 4.4 22:07:52 23° NW 22:08:56 25° WNW 22:12:55 10° WSW visible
04 Oct 2.3 21:25:48 50° NNE 21:27:08 89° ESE 21:32:04 10° SSW visible
05 Oct 3.5 20:43:39 20° E 20:45:19 24° ESE 20:49:15 10° SSE visible
05 Oct 4.7 22:23:29 21° W 22:23:29 21° W 22:26:20 10° WSW visible
06 Oct 2.5 21:41:15 72° SW 21:41:15 72° SW 21:45:43 10° SSW visible
07 Oct 3.3 20:58:57 27° ESE 20:58:58 27° ESE 21:03:07 10° S visible
07 Oct 5.2 22:38:47 13° WSW 22:38:47 13° WSW 22:39:41 10° WSW visible
